DAL1182 VVTS-VVDN

Flight info

Callsign DAL1182
Flight time 0h 59m
Altitude 33000
Route PATMA5B PATMA Q2 SADAS/K0789F290 Q7 MUMGA Q1 SADIN SADIN2L
Aircraft A339/H-SDE3FGHIRWY/S

Departure

Time 2026-04-24 09:08
Airport Tan Son Nhat International Airport (VVTS)

Arrival

Time 2026-04-24 10:07
Airport Da Nang International Airport (VVDN)
Time Latitude Longitude Altitude Speed Heading
2026-04-24 08:49 10.81540 106.65959 35 ft 0 kts 275°
2026-04-24 08:59 10.81540 106.65963 35 ft 3 kts 275°
2026-04-24 08:59 10.81537 106.65989 35 ft 3 kts 275°
2026-04-24 09:00 10.81536 106.66007 34 ft 3 kts 275°
2026-04-24 09:00 10.81526 106.66034 34 ft 2 kts 321°
2026-04-24 09:00 10.81508 106.66040 34 ft 1 kts 360°
2026-04-24 09:00 10.81507 106.66040 34 ft 0 kts
2026-04-24 09:02 10.81520 106.66040 34 ft 3 kts
2026-04-24 09:02 10.81557 106.66040 34 ft 6 kts
2026-04-24 09:03 10.81607 106.66043 35 ft 7 kts
2026-04-24 09:03 10.81656 106.66049 36 ft 6 kts
2026-04-24 09:03 10.81735 106.66058 38 ft 10 kts
2026-04-24 09:03 10.81809 106.66066 39 ft 10 kts 13°
2026-04-24 09:04 10.81869 106.66106 39 ft 10 kts 56°
2026-04-24 09:04 10.81892 106.66155 37 ft 12 kts 68°
2026-04-24 09:04 10.81931 106.66255 34 ft 16 kts 69°
2026-04-24 09:04 10.81971 106.66363 35 ft 16 kts 69°
2026-04-24 09:05 10.82026 106.66509 35 ft 17 kts 69°
2026-04-24 09:05 10.82071 106.66627 34 ft 18 kts 69°
2026-04-24 09:05 10.82100 106.66705 36 ft 16 kts 68°
2026-04-24 09:05 10.82138 106.66807 40 ft 14 kts 69°
2026-04-24 09:06 10.82172 106.66896 41 ft 12 kts 68°
2026-04-24 09:06 10.82204 106.66973 42 ft 9 kts 58°
2026-04-24 09:06 10.82260 106.66998 41 ft 9 kts 355°
2026-04-24 09:06 10.82320 106.66966 41 ft 10 kts 325°
2026-04-24 09:07 10.82348 106.66913 41 ft 8 kts 266°
2026-04-24 09:07 10.82336 106.66863 42 ft 0 kts 250°
2026-04-24 09:07 10.82080 106.66183 41 ft 117 kts 248°
2026-04-24 09:08 10.81719 106.65227 76 ft 167 kts 245°
2026-04-24 09:08 10.81315 106.64149 753 ft 161 kts 246°
2026-04-24 09:08 10.80926 106.63094 1375 ft 162 kts 245°
2026-04-24 09:08 10.80655 106.62371 1706 ft 170 kts 244°
2026-04-24 09:09 10.80053 106.60793 2301 ft 192 kts 245°
2026-04-24 09:09 10.79718 106.59914 2618 ft 204 kts 245°
2026-04-24 09:09 10.79290 106.58491 3079 ft 224 kts 266°
2026-04-24 09:09 10.79720 106.56907 3534 ft 246 kts 307°
2026-04-24 09:10 10.81095 106.55849 4006 ft 261 kts 344°
2026-04-24 09:10 10.82933 106.55734 4524 ft 273 kts
2026-04-24 09:10 10.85493 106.56028 5515 ft 277 kts
2026-04-24 09:10 10.86762 106.56158 5948 ft 277 kts
2026-04-24 09:11 10.88689 106.56351 6588 ft 279 kts
2026-04-24 09:11 10.91301 106.56612 7405 ft 283 kts
2026-04-24 09:11 10.93249 106.56810 8013 ft 286 kts
2026-04-24 09:11 10.95259 106.57018 8654 ft 289 kts
2026-04-24 09:12 10.97250 106.57262 9294 ft 291 kts 13°
2026-04-24 09:12 10.98532 106.57731 9719 ft 292 kts 31°
2026-04-24 09:12 11.00058 106.59052 10371 ft 293 kts 50°
2026-04-24 09:12 11.01781 106.61328 10845 ft 314 kts 54°
2026-04-24 09:13 11.03095 106.63152 11127 ft 331 kts 53°
2026-04-24 09:13 11.04515 106.65085 11523 ft 344 kts 53°
2026-04-24 09:13 11.05476 106.66370 11929 ft 348 kts 53°
2026-04-24 09:13 11.07459 106.68991 12817 ft 352 kts 52°
2026-04-24 09:14 11.08973 106.70976 13462 ft 356 kts 52°
2026-04-24 09:14 11.09974 106.72285 13866 ft 359 kts 52°
2026-04-24 09:14 11.11522 106.74307 14448 ft 364 kts 52°
2026-04-24 09:14 11.13102 106.76367 15041 ft 369 kts 52°
2026-04-24 09:15 11.14695 106.78445 15613 ft 374 kts 52°
2026-04-24 09:15 11.16827 106.81226 16372 ft 380 kts 52°
2026-04-24 09:15 11.17929 106.82663 16751 ft 383 kts 53°
2026-04-24 09:15 11.19578 106.84815 17303 ft 388 kts 53°
2026-04-24 09:16 11.21224 106.86968 17875 ft 392 kts 52°
2026-04-24 09:16 11.22913 106.89178 18460 ft 396 kts 52°
2026-04-24 09:16 11.25178 106.92141 19231 ft 400 kts 52°
2026-04-24 09:16 11.26331 106.93649 19625 ft 403 kts 52°
2026-04-24 09:17 11.28045 106.95892 20189 ft 406 kts 51°
2026-04-24 09:17 11.30365 106.98925 20936 ft 410 kts 51°
2026-04-24 09:17 11.31548 107.00472 21301 ft 412 kts 51°
2026-04-24 09:17 11.33320 107.02787 21829 ft 416 kts 50°
2026-04-24 09:18 11.35203 107.04996 22335 ft 418 kts 45°
2026-04-24 09:18 11.37316 107.07056 22848 ft 420 kts 40°
2026-04-24 09:18 11.40394 107.09534 23527 ft 424 kts 36°
2026-04-24 09:18 11.41963 107.10731 23847 ft 426 kts 36°
2026-04-24 09:19 11.45140 107.13139 24485 ft 430 kts 35°
2026-04-24 09:19 11.46749 107.14360 24805 ft 432 kts 35°
2026-04-24 09:19 11.49167 107.16198 25293 ft 434 kts 36°
2026-04-24 09:19 11.51601 107.18052 25777 ft 436 kts 36°
2026-04-24 09:20 11.54035 107.19906 26235 ft 438 kts 36°
2026-04-24 09:20 11.57284 107.22385 26865 ft 440 kts 36°
2026-04-24 09:20 11.59764 107.24279 27315 ft 442 kts 37°
2026-04-24 09:20 11.61381 107.25516 27604 ft 444 kts 37°
2026-04-24 09:21 11.64701 107.28058 28204 ft 446 kts 37°
2026-04-24 09:21 11.67163 107.29943 28620 ft 448 kts 37°
2026-04-24 09:21 11.68846 107.31233 28896 ft 449 kts 37°
2026-04-24 09:21 11.71363 107.33160 29306 ft 451 kts 36°
2026-04-24 09:22 11.73858 107.35071 29702 ft 454 kts 37°
2026-04-24 09:22 11.76403 107.37019 30106 ft 455 kts 37°
2026-04-24 09:22 11.78953 107.38971 30516 ft 457 kts 37°
2026-04-24 09:22 11.81473 107.40902 30938 ft 456 kts 37°
2026-04-24 09:23 11.84840 107.43483 31098 ft 454 kts 37°
2026-04-24 09:23 11.86534 107.44782 31100 ft 453 kts 37°
2026-04-24 09:23 11.92396 107.49277 31112 ft 452 kts 37°
2026-04-24 09:24 11.97454 107.53162 31127 ft 452 kts 37°
2026-04-24 09:24 12.01655 107.56389 31122 ft 452 kts 37°
2026-04-24 09:25 12.06674 107.60244 31144 ft 452 kts 36°
2026-04-24 09:25 12.11713 107.64117 31165 ft 452 kts 37°
2026-04-24 09:26 12.16753 107.67993 31199 ft 452 kts 37°
2026-04-24 09:26 12.22612 107.72503 31058 ft 453 kts 37°
2026-04-24 09:27 12.27761 107.76263 31059 ft 454 kts 31°
2026-04-24 09:27 12.32465 107.78694 31037 ft 453 kts 22°
2026-04-24 09:28 12.38481 107.80559 30993 ft 453 kts 11°
2026-04-24 09:28 12.44757 107.81247 30944 ft 453 kts
2026-04-24 09:29 12.51110 107.81385 30900 ft 454 kts
2026-04-24 09:29 12.57425 107.81493 30882 ft 454 kts
2026-04-24 09:30 12.64826 107.81632 30866 ft 454 kts
2026-04-24 09:30 12.70095 107.81735 30853 ft 454 kts
2026-04-24 09:31 12.76425 107.81859 30839 ft 454 kts
2026-04-24 09:31 12.82738 107.81984 30826 ft 453 kts
2026-04-24 09:32 12.90122 107.82129 30812 ft 454 kts
2026-04-24 09:32 12.96454 107.82253 30805 ft 454 kts
2026-04-24 09:33 13.01727 107.82358 30799 ft 454 kts
2026-04-24 09:33 13.08053 107.82484 30802 ft 453 kts
2026-04-24 09:34 13.15474 107.82630 30802 ft 453 kts
2026-04-24 09:34 13.21764 107.82757 30805 ft 453 kts
2026-04-24 09:35 13.27051 107.83185 30803 ft 453 kts
2026-04-24 09:35 13.33233 107.84424 30816 ft 453 kts 14°
2026-04-24 09:36 13.39241 107.86455 30821 ft 453 kts 21°
2026-04-24 09:36 13.45006 107.89102 30840 ft 454 kts 24°
2026-04-24 09:37 13.51704 107.92302 30853 ft 453 kts 24°
2026-04-24 09:37 13.56494 107.94588 30870 ft 454 kts 24°
2026-04-24 09:38 13.63176 107.97774 30889 ft 454 kts 24°
2026-04-24 09:38 13.67963 108.00057 30905 ft 454 kts 24°
2026-04-24 09:39 13.74643 108.03243 30913 ft 454 kts 24°
2026-04-24 09:39 13.79433 108.05528 30810 ft 452 kts 24°
2026-04-24 09:40 13.82285 108.06890 30558 ft 445 kts 24°
2026-04-24 09:40 13.85078 108.08225 30312 ft 445 kts 24°
2026-04-24 09:40 13.88845 108.10026 29874 ft 447 kts 24°
2026-04-24 09:40 13.90713 108.10918 29643 ft 447 kts 24°
2026-04-24 09:41 13.93554 108.12276 29287 ft 449 kts 24°
2026-04-24 09:41 13.96427 108.13570 28908 ft 447 kts 20°
2026-04-24 09:41 13.99362 108.14539 28530 ft 444 kts 14°
2026-04-24 09:41 14.02392 108.15184 28151 ft 442 kts
2026-04-24 09:42 14.06473 108.15534 27657 ft 439 kts
2026-04-24 09:42 14.08523 108.15592 27408 ft 437 kts
2026-04-24 09:42 14.12577 108.15667 26915 ft 435 kts
2026-04-24 09:42 14.14579 108.15701 26671 ft 433 kts
2026-04-24 09:43 14.17604 108.15756 26299 ft 430 kts
2026-04-24 09:43 14.21594 108.15835 25804 ft 427 kts
2026-04-24 09:43 14.23568 108.15875 25560 ft 426 kts
2026-04-24 09:43 14.26553 108.15938 25188 ft 423 kts
2026-04-24 09:44 14.29481 108.16000 24823 ft 421 kts
2026-04-24 09:44 14.32429 108.16065 24455 ft 419 kts 360°
2026-04-24 09:44 14.36288 108.16151 23970 ft 416 kts 360°
2026-04-24 09:44 14.38253 108.16193 23722 ft 415 kts 360°
2026-04-24 09:45 14.41111 108.16256 23359 ft 413 kts 360°
2026-04-24 09:45 14.44007 108.16319 22992 ft 411 kts 360°
2026-04-24 09:45 14.47827 108.16403 22503 ft 408 kts 360°
2026-04-24 09:45 14.49721 108.16445 22256 ft 407 kts 360°
2026-04-24 09:46 14.53486 108.16527 21795 ft 404 kts 360°
2026-04-24 09:46 14.56286 108.16589 21443 ft 402 kts 360°
2026-04-24 09:46 14.59078 108.16650 21088 ft 400 kts 360°
2026-04-24 09:46 14.61851 108.16711 20722 ft 398 kts 360°
2026-04-24 09:47 14.63726 108.16751 20464 ft 396 kts 360°
2026-04-24 09:47 14.67383 108.16831 19969 ft 393 kts 360°
2026-04-24 09:47 14.69216 108.16872 19730 ft 392 kts 360°
2026-04-24 09:47 14.71934 108.16930 19359 ft 390 kts
2026-04-24 09:48 14.75555 108.17011 18866 ft 387 kts
2026-04-24 09:48 14.77334 108.17049 18621 ft 386 kts
2026-04-24 09:48 14.80026 108.17109 18250 ft 384 kts
2026-04-24 09:48 14.83592 108.17188 17755 ft 382 kts
2026-04-24 09:49 14.86258 108.17248 17370 ft 380 kts
2026-04-24 09:49 14.88924 108.17306 16975 ft 378 kts
2026-04-24 09:49 14.91532 108.17364 16631 ft 375 kts
2026-04-24 09:49 14.93262 108.17403 16410 ft 373 kts
2026-04-24 09:50 14.95882 108.17461 16068 ft 371 kts
2026-04-24 09:50 14.99314 108.17538 15616 ft 369 kts
2026-04-24 09:50 15.01890 108.17595 15260 ft 367 kts
2026-04-24 09:50 15.03573 108.17632 15029 ft 365 kts
2026-04-24 09:51 15.06969 108.17599 14534 ft 362 kts 353°
2026-04-24 09:51 15.09422 108.17141 14178 ft 359 kts 344°
2026-04-24 09:51 15.11807 108.16328 13830 ft 357 kts 339°
2026-04-24 09:51 15.13361 108.15732 13602 ft 356 kts 339°
2026-04-24 09:52 15.15681 108.14822 13232 ft 354 kts 338°
2026-04-24 09:52 15.18748 108.13622 12674 ft 351 kts 339°
2026-04-24 09:52 15.21029 108.12736 12263 ft 349 kts 339°
2026-04-24 09:52 15.22549 108.12150 11998 ft 348 kts 339°
2026-04-24 09:53 15.25592 108.10980 11432 ft 346 kts 339°
2026-04-24 09:53 15.27088 108.10403 11162 ft 345 kts 339°
2026-04-24 09:53 15.30075 108.09251 10619 ft 342 kts 339°
2026-04-24 09:53 15.32304 108.08392 10219 ft 341 kts 339°
2026-04-24 09:54 15.34530 108.07534 9816 ft 340 kts 339°
2026-04-24 09:54 15.36008 108.06965 9530 ft 339 kts 339°
2026-04-24 09:54 15.38236 108.06107 9127 ft 338 kts 339°
2026-04-24 09:54 15.41167 108.05032 8586 ft 336 kts 346°
2026-04-24 09:55 15.42717 108.04884 8296 ft 336 kts
2026-04-24 09:55 15.45642 108.05971 7751 ft 335 kts 29°
2026-04-24 09:55 15.46959 108.06780 7493 ft 334 kts 30°
2026-04-24 09:55 15.48952 108.08007 7116 ft 333 kts 30°
2026-04-24 09:56 15.51665 108.09574 6578 ft 331 kts 28°
2026-04-24 09:56 15.53019 108.10317 6322 ft 329 kts 27°
2026-04-24 09:56 15.55006 108.11378 5835 ft 313 kts 27°
2026-04-24 09:56 15.56891 108.12367 5494 ft 294 kts 27°
2026-04-24 09:57 15.59250 108.13594 5029 ft 276 kts 27°
2026-04-24 09:57 15.60926 108.14463 4673 ft 265 kts 27°
2026-04-24 09:57 15.62030 108.15035 4434 ft 258 kts 27°
2026-04-24 09:57 15.64142 108.16128 4052 ft 253 kts 27°
2026-04-24 09:58 15.65181 108.16666 4038 ft 254 kts 27°
2026-04-24 09:58 15.67300 108.17764 4023 ft 244 kts 27°
2026-04-24 09:58 15.68286 108.18276 4005 ft 231 kts 27°
2026-04-24 09:58 15.69670 108.18993 4001 ft 217 kts 27°
2026-04-24 09:59 15.71498 108.19943 4015 ft 218 kts 27°
2026-04-24 09:59 15.72399 108.20411 4013 ft 219 kts 27°
2026-04-24 09:59 15.74222 108.21357 4011 ft 218 kts 27°
2026-04-24 09:59 15.75578 108.22061 4010 ft 219 kts 27°
2026-04-24 10:00 15.76485 108.22531 3997 ft 211 kts 27°
2026-04-24 10:00 15.77768 108.23084 3995 ft 192 kts 16°
2026-04-24 10:00 15.79034 108.23302 3996 ft 173 kts
2026-04-24 10:00 15.80525 108.23255 3972 ft 149 kts 356°
2026-04-24 10:01 15.81201 108.23181 3973 ft 146 kts 355°
2026-04-24 10:01 15.82213 108.23051 3917 ft 147 kts 354°
2026-04-24 10:01 15.83234 108.22911 3734 ft 146 kts 354°
2026-04-24 10:01 15.84568 108.22722 3495 ft 145 kts 354°
2026-04-24 10:02 15.85244 108.22624 3375 ft 145 kts 354°
2026-04-24 10:02 15.86238 108.22480 3194 ft 144 kts 354°
2026-04-24 10:02 15.87570 108.22285 2950 ft 144 kts 354°
2026-04-24 10:02 15.88556 108.22141 2769 ft 143 kts 354°
2026-04-24 10:03 15.89213 108.22044 2647 ft 143 kts 355°
2026-04-24 10:03 15.90536 108.21851 2402 ft 142 kts 355°
2026-04-24 10:03 15.91523 108.21707 2219 ft 142 kts 355°
2026-04-24 10:03 15.92499 108.21565 2040 ft 142 kts 355°
2026-04-24 10:04 15.93490 108.21420 1861 ft 142 kts 356°
2026-04-24 10:04 15.94141 108.21325 1747 ft 141 kts 356°
2026-04-24 10:04 15.95120 108.21184 1569 ft 140 kts 356°
2026-04-24 10:04 15.96408 108.20998 1334 ft 138 kts 356°
2026-04-24 10:05 15.97356 108.20856 1163 ft 137 kts 356°
2026-04-24 10:05 15.97984 108.20759 1041 ft 135 kts 355°
2026-04-24 10:05 15.98917 108.20606 845 ft 134 kts 354°
2026-04-24 10:05 15.99838 108.20474 655 ft 133 kts 357°
2026-04-24 10:06 16.00799 108.20339 528 ft 142 kts 356°
2026-04-24 10:06 16.02717 108.20080 211 ft 133 kts 354°
2026-04-24 10:06 16.03886 108.19918 66 ft 115 kts 352°
2026-04-24 10:07 16.04350 108.19852 65 ft 83 kts 352°
2026-04-24 10:07 16.04938 108.19762 64 ft 56 kts 353°
2026-04-24 10:07 16.05298 108.19708 63 ft 39 kts 350°
2026-04-24 10:07 16.05552 108.19672 60 ft 29 kts 351°
2026-04-24 10:08 16.05669 108.19659 60 ft 18 kts 10°
2026-04-24 10:08 16.05726 108.19744 58 ft 13 kts 75°
2026-04-24 10:08 16.05740 108.19838 57 ft 13 kts 86°
2026-04-24 10:08 16.05751 108.19933 56 ft 11 kts 93°
2026-04-24 10:09 16.05706 108.19987 56 ft 9 kts 142°
2026-04-24 10:09 16.05684 108.20042 55 ft 6 kts 89°
2026-04-24 10:09 16.05685 108.20090 54 ft 3 kts 79°
2026-04-24 10:09 16.05689 108.20110 54 ft 4 kts 81°
2026-04-24 10:10 16.05691 108.20124 54 ft 0 kts 81°
2026-04-24 10:10 16.05691 108.20128 54 ft 0 kts 81°
2026-04-24 10:10 16.05691 108.20129 54 ft 0 kts 81°